Hourly Weather Ruza

Today, 16 April, Friday

Time Temperature Precipitation Wind Pressure Humidity
00:00 +8°C° 0 mm 5 mps 745 mmHg 86%
01:00 +8°C° 0 mm 5 mps 745 mmHg 87%
02:00 +7°C° 0 mm 5 mps 745 mmHg 89%
03:00 +7°C° 0 mm 5 mps 745 mmHg 89%
04:00 +7°C° 0 mm 5 mps 746 mmHg 89%
05:00 +7°C° 0 mm 5 mps 746 mmHg 90%
06:00 +8°C° 0.1 mm 5 mps 746 mmHg 88%
07:00 +8°C° 0.1 mm 4 mps 746 mmHg 87%
08:00 +10°C° 0.1 mm 4 mps 747 mmHg 85%
09:00 +11°C° 0 mm 4 mps 747 mmHg 81%
10:00 +10°C° 0 mm 5 mps 747 mmHg 77%
11:00 +12°C° 0 mm 5 mps 747 mmHg 73%
12:00 +13°C° 0 mm 5 mps 747 mmHg 71%
13:00 +13°C° 0 mm 5 mps 747 mmHg 70%
14:00 +13°C° 0 mm 5 mps 747 mmHg 68%
15:00 +13°C° 0 mm 5 mps 747 mmHg 68%
16:00 +13°C° 0 mm 5 mps 747 mmHg 68%
17:00 +13°C° 0 mm 5 mps 747 mmHg 68%
18:00 +12°C° 0 mm 5 mps 747 mmHg 70%
19:00 +12°C° 0 mm 5 mps 747 mmHg 71%
20:00 +10°C° 0 mm 5 mps 748 mmHg 73%
21:00 +10°C° 0.1 mm 5 mps 748 mmHg 76%
22:00 +9°C° 0.1 mm 5 mps 748 mmHg 78%
23:00 +8°C° 0.1 mm 5 mps 748 mmHg 81%

Tomorrow, 17 April, Saturday

Time Temperature Precipitation Wind Pressure Humidity
00:00 +8°C° 0 mm 5 mps 748 mmHg 82%
01:00 +8°C° 0 mm 5 mps 748 mmHg 83%
02:00 +8°C° 0 mm 4 mps 748 mmHg 84%
03:00 +7°C° 0 mm 4 mps 749 mmHg 84%
04:00 +7°C° 0 mm 4 mps 749 mmHg 84%
05:00 +7°C° 0 mm 4 mps 749 mmHg 85%
06:00 +7°C° 0 mm 4 mps 749 mmHg 81%
07:00 +7°C° 0 mm 4 mps 749 mmHg 78%
08:00 +8°C° 0 mm 5 mps 749 mmHg 74%
09:00 +9°C° 0 mm 5 mps 749 mmHg 69%
10:00 +10°C° 0 mm 5 mps 749 mmHg 65%
11:00 +11°C° 0 mm 6 mps 749 mmHg 60%
12:00 +13°C° 0 mm 6 mps 749 mmHg 57%
13:00 +14°C° 0 mm 6 mps 749 mmHg 54%
14:00 +14°C° 0 mm 6 mps 749 mmHg 51%
15:00 +14°C° 0 mm 6 mps 749 mmHg 52%
16:00 +13°C° 0 mm 6 mps 749 mmHg 53%
17:00 +13°C° 0 mm 6 mps 748 mmHg 53%
18:00 +10°C° 0 mm 6 mps 749 mmHg 53%
19:00 +9°C° 0 mm 5 mps 749 mmHg 53%
20:00 +8°C° 0 mm 5 mps 749 mmHg 53%
21:00 +7°C° 0 mm 5 mps 749 mmHg 55%
22:00 +6°C° 0 mm 5 mps 749 mmHg 57%
23:00 +6°C° 0 mm 4 mps 749 mmHg 59%

Day after tomorrow, 18 April, Sunday

Time Temperature Precipitation Wind Pressure Humidity
00:00 +5°C° 0 mm 5 mps 749 mmHg 61%
01:00 +5°C° 0 mm 5 mps 749 mmHg 64%
02:00 +3°C° 0 mm 5 mps 749 mmHg 67%
03:00 +3°C° 0 mm 5 mps 749 mmHg 68%
04:00 +3°C° 0 mm 5 mps 749 mmHg 69%
05:00 +2°C° 0 mm 5 mps 749 mmHg 71%
06:00 +3°C° 0 mm 5 mps 749 mmHg 67%
07:00 +5°C° 0 mm 5 mps 749 mmHg 64%
08:00 +6°C° 0 mm 5 mps 749 mmHg 61%
09:00 +7°C° 0 mm 5 mps 749 mmHg 60%
10:00 +7°C° 0 mm 5 mps 749 mmHg 60%
11:00 +8°C° 0 mm 5 mps 749 mmHg 60%
12:00 +8°C° 0 mm 5 mps 749 mmHg 63%
13:00 +7°C° 0 mm 5 mps 750 mmHg 65%
14:00 +7°C° 0 mm 4 mps 750 mmHg 68%
15:00 +7°C° 0 mm 4 mps 750 mmHg 68%
16:00 +9°C° 0 mm 3 mps 750 mmHg 68%
17:00 +9°C° 0 mm 3 mps 750 mmHg 67%
18:00 +8°C° 0 mm 2 mps 750 mmHg 71%
19:00 +7°C° 0 mm 2 mps 750 mmHg 75%
20:00 +6°C° 0 mm 2 mps 750 mmHg 80%
21:00 +5°C° 0 mm 2 mps 750 mmHg 80%
22:00 +5°C° 0 mm 2 mps 750 mmHg 80%
23:00 +4°C° 0 mm 2 mps 750 mmHg 80%

19 April, Monday

Time Temperature Precipitation Wind Pressure Humidity
00:00 +3°C° 0 mm 3 mps 750 mmHg 81%
01:00 +3°C° 0 mm 3 mps 751 mmHg 82%
02:00 +3°C° 0 mm 3 mps 751 mmHg 82%
03:00 +3°C° 0 mm 3 mps 751 mmHg 85%
04:00 +3°C° 0 mm 3 mps 751 mmHg 87%
05:00 +2°C° 0 mm 3 mps 751 mmHg 90%
06:00 +4°C° 0 mm 4 mps 751 mmHg 86%
07:00 +5°C° 0 mm 4 mps 751 mmHg 81%
08:00 +6°C° 0 mm 4 mps 751 mmHg 77%
09:00 +6°C° 0 mm 4 mps 751 mmHg 76%
10:00 +6°C° 0 mm 4 mps 751 mmHg 75%
11:00 +6°C° 0 mm 4 mps 752 mmHg 74%
12:00 +7°C° 0 mm 4 mps 751 mmHg 72%
13:00 +7°C° 0 mm 4 mps 751 mmHg 70%
14:00 +7°C° 0 mm 4 mps 751 mmHg 68%
15:00 +7°C° 0 mm 4 mps 751 mmHg 67%
16:00 +7°C° 0 mm 4 mps 751 mmHg 65%
17:00 +7°C° 0 mm 4 mps 751 mmHg 64%
18:00 +7°C° 0 mm 4 mps 751 mmHg 65%
19:00 +6°C° 0 mm 4 mps 751 mmHg 66%
20:00 +5°C° 0 mm 4 mps 751 mmHg 66%
21:00 +5°C° 0 mm 4 mps 751 mmHg 67%
22:00 +4°C° 0 mm 4 mps 751 mmHg 67%
23:00 +3°C° 0 mm 4 mps 751 mmHg 68%

20 April, Tuesday

Time Temperature Precipitation Wind Pressure Humidity
00:00 +1°C° 0 mm 4 mps 751 mmHg 67%
01:00 +1°C° 0 mm 4 mps 751 mmHg 67%
02:00 0°C° 0 mm 4 mps 750 mmHg 67%
03:00 0°C° 0 mm 4 mps 750 mmHg 68%
04:00 0°C° 0 mm 4 mps 750 mmHg 69%
05:00 -1°C° 0 mm 4 mps 749 mmHg 69%
06:00 0°C° 0 mm 5 mps 749 mmHg 67%
07:00 +1°C° 0 mm 5 mps 749 mmHg 64%
08:00 +2°C° 0 mm 5 mps 749 mmHg 61%
09:00 +3°C° 0 mm 6 mps 748 mmHg 59%
10:00 +4°C° 0 mm 6 mps 747 mmHg 57%
11:00 +5°C° 0 mm 6 mps 747 mmHg 55%
12:00 +5°C° 0 mm 6 mps 746 mmHg 62%
13:00 +4°C° 0 mm 7 mps 745 mmHg 68%
14:00 +4°C° 0 mm 7 mps 745 mmHg 74%
15:00 +3°C° 1.3 mm 7 mps 744 mmHg 81%
16:00 +2°C° 1.3 mm 7 mps 743 mmHg 88%
17:00 0°C° 1.3 mm 8 mps 742 mmHg 95%
18:00 0°C° 1.8 mm 7 mps 741 mmHg 95%
19:00 0°C° 1.8 mm 7 mps 741 mmHg 96%
20:00 -1°C° 1.8 mm 7 mps 740 mmHg 96%
21:00 0°C° 0.9 mm 7 mps 739 mmHg 96%
22:00 0°C° 0.9 mm 7 mps 739 mmHg 96%
23:00 +1°C° 0.9 mm 6 mps 738 mmHg 96%

21 April, Wednesday

Time Temperature Precipitation Wind Pressure Humidity
00:00 +2°C° 0.6 mm 6 mps 738 mmHg 96%
01:00 +2°C° 0.6 mm 6 mps 737 mmHg 95%
02:00 +2°C° 0.6 mm 6 mps 737 mmHg 95%
03:00 +3°C° 0.8 mm 6 mps 737 mmHg 95%
04:00 +3°C° 0.8 mm 6 mps 736 mmHg 95%
05:00 +5°C° 0.8 mm 5 mps 736 mmHg 95%
06:00 +4°C° 0 mm 6 mps 736 mmHg 94%
07:00 +4°C° 0 mm 6 mps 736 mmHg 94%
08:00 +4°C° 0 mm 6 mps 735 mmHg 93%
09:00 +4°C° 0.1 mm 6 mps 735 mmHg 93%
10:00 +5°C° 0.1 mm 6 mps 735 mmHg 93%
11:00 +5°C° 0.1 mm 6 mps 735 mmHg 92%
12:00 +5°C° 0.4 mm 6 mps 735 mmHg 93%
13:00 +6°C° 0.4 mm 5 mps 735 mmHg 93%
14:00 +6°C° 0.4 mm 5 mps 735 mmHg 93%
15:00 +5°C° 0.2 mm 5 mps 735 mmHg 93%
16:00 +4°C° 0.2 mm 6 mps 735 mmHg 93%
17:00 +4°C° 0.2 mm 6 mps 735 mmHg 93%
18:00 +3°C° 0.1 mm 5 mps 735 mmHg 94%
19:00 +2°C° 0.1 mm 5 mps 736 mmHg 95%
20:00 +2°C° 0.1 mm 5 mps 736 mmHg 96%
21:00 +2°C° 0.2 mm 5 mps 737 mmHg 96%
22:00 +2°C° 0.2 mm 5 mps 737 mmHg 96%
23:00 +1°C° 0.2 mm 5 mps 737 mmHg 96%
Show more